Location: Newark
(45.9456°N, 15.4064°E)
Time: 01:25:19
(UTC+00:00)

SR - Pass Details

Date: 30 January 2020
Orbit: 575 x 881 km, 66.7° (Epoch: 19 February)

Event Time Altitude Azimuth Distance (km) Brightness Sun altitude
Rises 21:35:53 0° 253° (WSW) 3,452 - -55.4°
Reaches altitude 10° 21:38:48 10° 266° (W) 2,533 - -55.7°
Maximum altitude 21:43:40 26° 321° (NW) 1,674 - -56.3°
Drops below altitude 10° 21:48:31 10° 17° (NNE) 2,521 - -56.8°
Sets 21:51:25 0° 30° (NNE) 3,434 - -57.1°
